CAPE
3933 4000 4063 3721 3895 3669 3550 3507 3401 3337 3374 3071 3051 2900 2631 2500 2712 2709 3272 3510 3659 3344 3294 3518 3957 4069 3533 3410 3586 4127 4465 4246 4186 4398 4298 4151 4216 4208 4118 4436 4219 3824 3536 3303 2948 2751 2510 2304 2395 2555 2269 1854 1518 1292 1325 1577 1568 1525 1354 1602 1303 1514 1421 1404 1352 1220 1244 1057 939 740 575 934 831 1153 1263 1209 1241 751 784 745 1863 1157 1234 1189 894
4256 4174 4228 3677 3482 3672 3362 3436 3371 3144 3142 2935 2826 2908 3007 2809 2802 3267 3340 3576 3775 3556 3328 3141 3852 4286 4185 4064 4002 4324 4614 4464 4108 4330 4372 4289 4218 4118 3950 4421 4331 4061 3750 3604 3290 2841 2627 2518 2471 2480 2376 1983 1661 1404 1311 1195 1347 1019 1262 1270 1207 1244 1406 1112 1240 1320 1047 1413 764 899 1484 922 1283 651 734 882 877 890 724 848 1022 1632 1127 814 776
4205 4295 4141 3732 3615 3485 3602 3533 3337 2992 2718 2669 2318 2331 2994 3169 3001 3274 3227 3196 3589 3559 3696 3227 3413 4062 4189 4408 4499 4403 4685 4574 4193 4195 4414 4401 4318 3825 3526 3862 4231 4095 3926 3719 3541 3108 2727 2580 2530 2406 2211 2061 1793 1487 1298 1303 1177 1081 1048 1010 1092 1131 1346 1281 1182 1014 1040 1405 1419 1058 807 978 914 1152 660 964 1202 1373 1066 1026 684 592 684 993 773
3902 4220 4001 3761 3602 3619 3721 3667 2889 2792 2776 2979 2593 2067 2229 2697 3096 3087 3119 2895 3340 3489 3688 3776 3979 4089 4350 4493 4759 4517 4594 4569 4337 4122 4342 4490 4445 4232 3727 3510 3900 4049 3972 3810 3583 3255 2826 2632 2380 2242 2139 2022 1876 1577 1374 1386 1456 1572 1270 1177 1179 1184 1386 1245 1391 1161 1118 1062 1606 874 1051 765 1050 1164 1160 1071 803 1156 1507 1355 1184 870 714 778 674
4072 3993 3744 3616 3481 3630 3469 3644 3795 3434 3177 2859 2606 2304 2168 2516 2880 2732 2615 2564 3130 3535 3588 3967 4423 4472 4241 4522 4961 4854 4574 4626 4387 4064 4200 4437 4513 4390 4042 3654 3604 3950 4016 3932 3663 3323 3012 2604 2448 2317 2268 2102 2086 1680 1455 1422 1299 1674 1531 1473 1313 1358 1357 1448 1225 1314 1462 1254 1300 1453 1689 1052 1172 953 936 1048 1001 997 1238 1157 1303 1064 1092 810 454
3841 4230 4270 3911 3668 3703 3544 3344 3348 3304 3312 2927 2522 2683 2192 2302 2823 3130 3164 2860 2698 3084 3832 3738 4191 4674 4386 4319 4714 4922 4775 4709 4616 4372 4084 4212 4453 4472 4314 3875 3480 3643 3970 3874 3625 3299 3051 2790 2529 2440 2302 2194 2138 1916 1620 1396 1365 1360 1646 1547 1381 1378 1426 1599 1475 1219 1220 1568 1410 1539 1484 1641 1018 1236 847 733 1152 817 1074 1160 1078 1116 1170 751 392
4238 4434 4386 3663 3858 3713 3857 3419 3186 3455 3496 3079 2687 2626 2532 2148 2204 2796 3232 3178 2568 2260 3324 3876 3829 4609 4742 4476 4484 4735 4862 4746 4742 4786 4486 4234 4444 4573 4394 4153 3691 3525 3618 3584 3365 3150 2966 2922 2804 2673 2458 2295 2198 2119 1864 1562 1406 1290 1534 1703 1529 1399 1370 1449 1716 1410 1244 1166 1420 1491 1710 1216 1376 1252 1244 1046 966 1204 954 961 948 934 1147 1178 873
4472 4543 4611 4339 4016 3767 4007 3398 3343 3608 3398 3405 3195 3007 2629 2388 2440 2767 3473 3368 2716 2701 2719 3854 4248 4362 4830 4766 4646 4627 4882 4938 4900 4976 4918 4635 4513 4590 4476 4355 4090 3760 3552 3564 3381 3071 2937 2887 2756 2782 2632 2514 2356 2304 2102 1784 1551 1411 1465 1668 1715 1522 1426 1392 1454 1590 1458 1234 1115 1203 1133 1639 1024 1118 1540 1168 1088 1095 1108 1011 866 943 876 1083 1055
4682 4622 4699 4608 4328 4034 4041 3952 3733 3551 3572 3705 3423 3127 2977 2917 2773 2721 3266 3562 3340 3193 2733 2700 4064 4285 4628 5003 4882 4689 4718 4859 4812 4906 5010 4909 4546 4402 4542 4471 4347 4036 3797 3626 3630 3447 3193 2951 2795 2702 2800 2671 2405 2247 2197 1932 1742 1536 1577 1690 1729 1646 1584 1484 1420 1412 1581 1521 1314 1174 1180 1050 1336 920 956 1186 876 797 944 855 933 1047 1110 1181 1287
4864 4772 4777 4835 4713 4476 4413 4349 4205 3878 3879 3996 3742 3410 3203 3046 2829 2755 2844 3535 3753 3770 3299 2741 3094 4332 4490 5024 5218 4963 4742 4741 4490 4466 4532 4750 4637 4197 4289 4519 4429 4153 4036 3773 3557 3568 3278 2989 2829 2530 2524 2610 2512 2264 2128 2019 1741 1602 1626 1700 1691 1703 1661 1626 1561 1457 1497 1603 1557 1371 1132 1084 1038 1194 881 914 1074 996 1069 1070 761 966 1248 1072 1258
4942 4814 4842 5048 5075 4895 4794 4730 4646 4368 4209 4124 4079 3620 3264 3230 3049 3028 3060 3279 3641 4186 4054 3659 2783 3200 4434 4710 5152 5056 4848 4774 4534 4451 4321 4290 4450 4318 4163 4542 4591 4448 4194 3991 3725 3565 3359 3029 2977 2809 2600 2577 2635 2432 2092 2070 1954 1672 1457 1596 1682 1725 1673 1649 1634 1518 1440 1502 1543 1454 1229 1111 1100 1064 1168 975 975 1124 934 1133 945 874 879 810 692
5160 5000 5005 5299 5362 5269 5155 5100 5004 4807 4430 4204 4267 4061 3491 3224 3276 3303 3323 3324 3650 4106 4326 4172 3773 3080 3988 4606 4774 4978 4908 4588 4617 4617 4505 4445 4267 4295 4269 4351 4611 4567 4292 4052 4004 3743 3546 3402 3226 3201 2977 2726 2651 2535 2245 2010 2034 1968 1730 1460 1621 1583 1529 1561 1539 1555 1471 1430 1478 1428 1306 1224 1197 1125 1070 1043 1065 1094 1126 1097 1200 936 889 787 629
5387 5252 5082 5449 5501 5516 5466 5344 5188 5079 4802 4427 4374 4463 4044 3532 3444 3463 3426 3520 3571 3947 4452 4404 4310 3917 3589 4542 4830 5020 5146 4785 4752 4720 4510 4437 4319 4067 4337 4278 4240 4426 4318 4066 3907 3936 3759 3588 3545 3425 3460 2970 2800 2688 2510 2178 1985 2004 1905 1679 1568 1578 1484 1439 1379 1454 1502 1485 1439 1444 1389 1280 1287 1250 1106 999 1139 1120 1189 1145 1166 1118 966 915 852
5205 5396 5297 5564 5708 5728 5722 5558 5392 5263 5253 4987 4687 4775 4609 4034 3473 3438 3599 3820 3891 4029 4154 4498 4471 4459 4123 4235 4685 4963 5190 4966 4752 4718 4584 4348 4188 3927 4159 4432 4395 4335 4410 4339 4074 4026 4134 3958 3716 3556 3468 3417 3048 2841 2739 2585 2305 1974 1924 1760 1535 1518 1528 1423 1340 1317 1418 1535 1528 1461 1506 1387 1242 1325 1288 1098 1209 1088 1177 1101 1027 1080 1024 980 1148
4329 5540 5320 5590 5912 5936 5934 5841 5752 5574 5585 5480 5110 5043 5133 4857 4267 3639 3572 3921 4034 4117 4206 4337 4630 4589 4494 4245 4409 4883 4833 4872 4874 4746 4654 4506 4223 3996 3698 4260 4386 4468 4563 4620 4523 4238 4234 4268 3954 3576 3472 3598 3106 2926 2764 2608 2453 2269 1957 1808 1614 1558 1527 1480 1373 1324 1277 1317 1454 1520 1531 1483 1363 1470 1544 1288 1137 1267 1240 1165 1029 903 1114 1216 1431
4171 5321 5319 5342 5757 5949 6052 6082 6071 5908 5780 5688 5516 5418 5567 5429 4935 4365 3823 3762 4090 4452 4724 4346 4402 4598 4724 4588 4158 4276 4322 4372 4769 4850 4730 4466 4332 4090 3760 4008 4204 4416 4702 4723 4733 4683 4486 4269 4111 3841 3480 3440 3411 3027 2833 2714 2570 2285 2148 1888 1711 1546 1647 1469 1412 1257 1192 1186 1147 1277 1445 1518 1417 1462 1548 1598 1323 1297 1352 1440 1450 1138 1148 1209 1008
4159 4906 5260 5329 5602 5912 6064 6132 6158 6178 5979 5762 5622 5581 5738 5715 5467 4999 4450 4305 4446 4645 4682 4544 4528 4630 4752 4841 4621 4263 4147 3910 3993 4544 4736 4693 4430 4159 3982 3831 4096 4101 4196 4641 4875 4868 4752 4523 4253 4095 3876 3569 3331 3211 2922 2729 2905 2655 2242 2046 1879 1692 1535 1577 1390 1308 1152 1026 973 978 1154 1338 1364 1331 1294 1170 1380 1325 1116 850 1003 1068 940 965 1106
4231 4634 5382 5307 5432 5820 6148 6227 6105 5962 6107 5927 5703 5735 5752 5587 5496 5324 4846 4491 4313 4485 4581 4659 4855 4892 4697 4744 4791 4720 4734 4297 3775 3818 4281 4593 4587 4422 4104 3822 4083 4072 3971 4047 4467 4942 5006 4594 4315 4275 4130 3944 3508 3338 3119 2835 2918 3013 2610 2276 1999 1829 1739 1566 1524 1371 1224 1124 992 862 804 952 1130 1124 1049 935 793 1064 1012 760 816 676 865 928 928
4295 4329 5272 5475 5528 5808 6167 6252 6198 5993 6110 5989 5837 5851 5715 5607 5589 5679 4988 4534 4140 4503 4670 4846 5032 5040 4720 4582 4658 4687 4743 4617 4263 3921 3757 4080 4403 4462 4307 4035 4000 4152 4077 4057 4088 4296 4738 4645 4416 4191 4218 4108 3806 3538 3297 3003 2772 3119 2984 2615 2257 2119 1986 1769 1705 1524 1435 1284 1164 1031 910 776 725 840 855 790 664 729 916 913 784 678 819 967 833
4475 4407 5169 5727 5634 5756 5889 6122 6078 5848 5869 6046 5964 5875 5694 5465 5640 5614 5309 4851 4430 4333 4484 4684 5202 5246 4845 4648 4520 4467 4790 4997 4570 4413 4108 3866 3885 4163 4212 4114 3933 4096 4147 4133 4120 4038 4037 4294 4303 4268 4084 4010 4040 3822 3517 3257 2897 2856 3029 2850 2503 2278 2174 1968 1730 1642 1427 1319 1224 1132 1013 891 754 574 743 675 615 553 960 1042 884 724 801 728 651
4984 4743 5026 5642 5643 5678 5762 6114 6033 5798 5785 5736 5724 5595 5434 5280 5216 5377 5230 4828 4770 4609 4401 4297 4526 5085 5125 5220 5031 4942 4906 4984 4809 4649 4464 4326 4124 3880 3860 4050 4162 4133 4151 3998 4012 3977 3957 3889 3902 3861 3915 3947 3947 3987 3871 3610 3298 2933 2881 2933 2660 2417 2192 1960 1797 1592 1502 1322 1222 1149 1106 986 878 752 632 555 525 620 810 879 882 605 571 388 274
5365 5109 5153 5390 5582 5650 5747 5948 5840 5598 5663 5880 5938 5736 5511 5378 5346 5536 5219 5400 5396 5310 4905 4531 4404 4463 4689 4999 5148 5311 5049 4586 5238 4671 4584 4465 4364 4308 4243 4058 4014 4238 4202 4196 4132 3969 3870 3854 3883 3783 3668 3683 3738 3802 3839 3747 3611 3388 3006 2725 2665 2543 2261 1946 1921 1588 1531 1356 1233 1172 1124 1081 970 878 772 642 661 562 598 665 679 666 510 369 323
5714 5461 5494 5472 5703 5844 5812 5795 5624 5461 5712 5966 6014 5865 5814 5637 5471 5551 5579 5652 5735 5564 5539 5310 4959 4845 4870 4950 5016 5266 5583 5561 4490 4484 4556 4398 4244 4262 4288 4290 4185 4035 4151 4163 4104 3953 3885 3791 3667 3482 3548 3654 3647 3591 3567 3611 3579 3506 3356 3139 2830 2545 2401 2135 1834 1676 1574 1353 1220 1144 1053 1004 962 913 849 739 684 664 653 702 713 595 533 473 357
5947 5642 5421 5478 5647 5653 5620 5688 5747 5522 5757 5931 5929 5850 5818 5723 5737 5789 5797 5774 5813 5745 5765 5671 5383 5055 5089 5156 5226 5111 6103 5525 5066 4387 4249 4217 4195 4089 4029 4052 4063 4018 3892 4114 4091 3997 3904 3818 3598 3447 3395 3400 3454 3537 3531 3412 3323 3371 3339 3232 3028 2775 2480 2184 1851 1654 1521 1356 1208 1079 997 910 824 800 763 707 643 698 851 724 577 462 509 524 254
5997 5686 5565 5547 5656 5519 5616 5636 5795 5706 5785 5826 5830 5770 5715 5568 5728 5857 5930 5736 5671 5699 5770 5608 5704 5636 5443 5194 5054 5375 5131 6121 4782 4258 4207 4062 3950 3863 3792 3776 3760 3760 3756 3732 3743 3797 3754 3643 3467 3295 3138 3118 3091 3243 3272 3298 3250 3120 3037 3007 2865 2758 2554 2297 2013 1798 1552 1387 1232 1095 980 855 748 736 749 721 702 760 734 645 514 534 624 605 213
5916 5691 5480 5485 5449 5132 5411 5391 5802 5453 5638 5529 5832 5847 5707 5490 5535 5891 5892 5625 5628 5789 5914 5454 5458 5289 5268 5045 5118 4896 5327 5134 5236 5003 4117 4004 3888 3832 3740 3675 3651 3598 3515 3435 3410 3378 3404 3513 3438 3388 3284 3193 3088 3058 3169 3227 3174 3040 2964 2905 2830 2729 2639 2443 2106 1890 1623 1444 1317 1194 1038 866 749 696 706 708 714 741 666 636 640 582 545 283 86
5956 5820 5716 5334 5367 5255 5044 4757 4964 5422 5684 5228 5588 5749 5555 5491 5465 5888 5705 5422 5478 5450 5295 4933 4796 4618 4588 5122 4933 5249 5028 5421 5065 4052 4217 4196 4090 4084 4059 4058 4001 3915 3836 3824 3801 3760 3686 3632 3556 3545 3464 3406 3314 3227 3183 3142 3016 2886 2856 2842 2795 2694 2618 2511 2284 2030 1784 1503 1378 1276 1124 986 853 757 758 768 746 725 671 693 693 591 390 285 167
5887 5998 5938 5650 5456 5391 5377 4886 5022 4554 4833 4584 4718 4626 4753 4768 5078 5733 5175 5095 5026 4855 4483 4390 4462 4351 4553 4724 4830 5142 5387 4108 3964 3891 3854 3744 3697 3742 3847 3904 3912 3866 3826 3782 3748 3661 3611 3536 3462 3471 3495 3514 3588 3610 3593 3442 3294 3132 2972 2846 2718 2624 2568 2476 2390 2179 1948 1552 1236 1125 1064 968 904 803 740 721 725 708 681 723 710 594 359 247 19
5614 5670 5649 5513 5767 5576 5706 5630 5396 4798 4414 4224 4384 4316 4441 4529 4420 4057 4243 4306 5082 6384 5812 4326 4068 4124 4300 4492 4718 4713 4596 4336 4230 3996 3873 3814 3744 3765 3810 3852 3852 3817 3775 3750 3701 3674 3628 3550 3557 3530 3522 3490 3460 3463 3462 3521 3570 3475 3400 3322 3149 2921 2476 2227 2196 2080 1880 1803 1627 1223 1188 1052 943 773 746 678 738 727 762 789 718 651 524 344 131
5375 5542 5462 5857 5756 5529 5547 5246 4954 4675 4066 3996 4176 4086 4281 4265 3981 3911 4011 4005 4142 4575 4867 4533 4271 4161 4096 4149 4170 4257 4307 4263 4142 4092 4047 3970 3979 3920 3833 3797 3699 3601 3555 3524 3316 3045 2598 2412 2284 2298 2222 2238 2364 2518 2675 2897 3076 3263 3338 3439 3459 3313 3054 2609 2186 2000 1861 1619 1609 1401 1070 1038 1085 898 591 465 624 727 715 833 717 348 361 0 0
5934 5557 5539 5368 5372 4984 4949 5607 5652 6202 4200 4226 4532 4173 4244 4225 3956 3766 3855 3878 3871 3900 3983 4253 4348 4356 4319 4317 4207 4073 4073 3951 3803 3693 3585 3490 3455 3441 3400 3295 3012 2243 1240 0 0 0 0 0 62 508 917 1301 1571 1737 1858 1942 1952 1955 2135 2492 2766 2943 3090 2204 2470 2043 1764 1444 1425 1108 1134 774 758 714 914 736 788 634 728 364 138 0 0 0 0
5306 4883 4618 4773 5240 5710 6004 5834 5302 5197 4560 4191 4362 4362 4112 4082 4130 4080 3986 3849 3799 3760 3780 3726 3685 3648 3695 3675 3609 3542 3388 3343 3162 2673 1769 690 303 0 0 0 0 0 0 0 0 0 0 0 0 0 38 250 627 956 1232 1497 1630 1652 1590 1544 1619 1781 1906 1988 2031 2132 1969 1652 1344 1324 1079 809 750 586 518 440 509 383 452 255 53 0 2 8 0
4139 4166 4294 4346 4243 4262 4322 4272 4323 4339 4182 3889 3790 3690 3667 3654 3747 3724 3675 3792 3840 3733 3528 3315 3128 2963 2838 2735 2520 1792 336 0 0 0 0 0 0 0 0 0 0 0 0 0 0 0 0 0 0 0 0 0 0 61 342 722 1084 1302 1337 1248 1194 1250 1291 1314 1340 1486 1512 1296 1142 983 668 804 598 479 400 468 456 367 256 127 0 0 0 1 2
3428 3465 3544 3656 3772 3833 3793 3722 3868 3990 3855 3808 3597 3036 2949 3318 3416 3365 3389 3279 3117 3096 2848 2381 1254 360 166 0 0 0 0 0 0 0 0 0 0 0 0 0 0 0 0 0 0 0 0 0 0 0 0 0 1 2 5 28 130 416 770 944 947 954 1011 1060 1104 1114 1254 563 427 685 436 478 454 512 460 480 292 206 146 11 0 0 0 0 0
2609 2517 2749 2848 2920 2862 2996 3319 3408 3592 3795 3682 3481 2425 1429 1714 1418 2056 2301 2277 2161 1961 1107 316 217 176 0 0 0 0 0 0 0 0 0 0 0 0 0 0 407 33 0 0 0 0 0 2 0 0 0 0 0 2 3 3 6 14 107 330 478 543 596 607 612 684 902 861 414 455 347 440 460 411 413 384 160 92 52 25 0 3 1 1 0
1244 1232 1548 1653 1944 2052 2058 2434 2924 3295 3501 3062 1845 1631 1535 1107 818 776 768 1104 1499 1636 1622 1581 842 630 0 0 0 0 0 0 0 0 0 0 0 0 106 231 106 87 73 146 97 80 21 8 3 1 0 0 0 0 0 0 1 4 21 96 180 218 245 274 388 479 568 442 322 294 293 297 348 350 339 258 146 134 79 0 1 0 1 0 0
776 704 755 841 996 1148 1263 1227 1546 1410 1208 1519 1388 1094 773 819 988 992 842 664 929 981 1736 1265 880 932 241 141 18 0 0 0 0 0 0 0 0 0 136 126 56 81 127 186 175 81 51 48 42 17 4 1 0 1 7 27 50 58 36 46 57 34 50 102 130 2 2 34 225 357 251 210 230 226 231 225 170 42 7 1 1 0 0 0 0
1324 1425 1225 1212 1369 1697 1766 1823 1316 1136 1336 1258 1827 1546 1103 975 847 886 996 928 678 935 991 824 611 642 432 313 63 8 0 0 0 98 0 0 65 99 97 52 16 13 27 77 131 70 48 75 38 27 28 50 74 94 100 110 116 133 114 48 32 30 0 7 24 1 21 52 289 187 172 242 193 174 227 259 131 14 0 7 0 1 2 0 0
885 828 809 766 771 1142 1070 1172 1259 1168 1037 820 709 862 936 792 906 971 1177 830 696 500 590 689 601 414 233 144 119 20 120 245 233 252 225 138 181 43 34 39 11 10 4 45 23 21 28 60 31 18 14 22 36 41 34 28 26 12 4 59 150 68 0 0 0 11 35 230 340 294 81 165 99 76 159 141 0 2 7 4 5 1 0 0 0
638 742 675 378 464 749 774 791 700 802 708 626 413 514 599 619 650 710 678 602 584 545 435 437 433 453 263 123 31 17 27 126 211 143 79 30 22 23 28 58 37 5 6 8 10 11 8 6 12 18 14 12 14 30 24 21 1 0 0 0 74 101 3 13 33 22 296 329 232 1 2 29 60 66 41 22 4 1 2 2 0 0 6 13 0
773 881 946 790 639 646 490 342 491 588 444 482 476 377 359 523 457 347 299 247 243 249 172 164 399 480 133 3 0 2 25 94 288 147 80 56 18 9 21 96 19 3 5 7 10 14 9 8 6 9 9 6 8 2 2 3 1 1 0 0 0 0 0 0 30 90 66 3 0 33 42 22 52 56 23 9 7 5 6 0 8 23 35 1 0
536 464 516 707 1271 557 144 213 298 651 750 492 305 198 205 246 192 189 134 126 90 48 43 163 604 390 62 0 0 0 9 258 186 177 79 27 6 26 22 44 14 13 9 7 11 12 9 6 7 6 4 4 3 1 0 0 0 0 0 0 0 0 0 0 0 0 0 51 49 37 50 50 68 60 42 32 26 19 22 25 34 42 38 28 8
422 283 312 248 128 165 235 238 315 301 376 356 366 339 540 465 364 318 238 311 237 110 178 197 214 301 231 1 5 0 221 168 84 148 79 23 30 12 7 6 3 8 12 9 8 13 10 5 4 1 2 2 2 1 0 0 0 7 2 10 13 9 0 0 0 0 0 7 22 30 36 22 18 16 27 32 29 38 46 46 31 20 3 0 0
25 25 53 109 111 37 81 107 42 50 108 290 277 244 265 318 218 207 163 178 155 140 116 86 65 93 100 843 173 633 108 118 114 56 120 37 7 6 3 5 4 6 10 10 8 10 5 5 2 3 0 1 0 0 0 0 0 0 29 22 20 16 21 7 7 6 23 34 28 20 14 11 16 26 29 25 26 27 20 21 35 20 0 0 0
10 6 1 0 0 1 0 2 1 3 0 0 4 2 2 1 0 0 0 3 9 27 63 69 69 69 64 151 158 83 74 67 60 50 58 26 6 3 2 3 1 7 7 7 1 3 5 2 1 0 0 0 0 0 0 0 0 0 26 59 41 24 22 39 28 20 38 34 21 29 17 27 26 42 38 31 28 15 2 19 0 0 0 0 0
0 0 0 0 0 0 0 0 0 0 0 0 0 0 0 0 0 0 0 0 0 0 0 1 9 9 24 34 34 27 34 44 37 29 12 2 6 3 0 0 0 4 12 2 0 1 0 0 0 0 0 0 0 0 0 0 0 0 5 22 39 37 51 52 57 52 40 46 54 47 46 33 28 34 31 16 18 24 0 0 0 4 6 3 0
0 0 0 0 0 0 0 0 0 0 0 0 0 0 0 0 0 0 0 0 0 0 0 2 2 2 1 0 2 1 1 12 10 14 16 36 28 0 0 0 0 1 11 1 8 5 0 0 0 0 0 0 0 0 0 0 0 0 0 9 8 13 24 28 44 64 64 63 67 56 52 55 54 57 61 55 48 45 7 10 11 16 10 0 0
0 0 0 0 0 0 0 0 0 0 1 1 1 0 0 0 1 1 0 1 1 2 1 0 0 0 1 1 0 0 0 3 4 3 11 18 7 0 0 0 0 1 8 6 0 0 0 0 0 0 0 0 0 0 0 0 0 0 0 1 0 0 8 14 24 29 31 20 39 54 69 73 65 47 11 0 26 10 9 3 0 0 0 0 0
0 0 0 0 0 0 0 2 1 0 0 1 1 1 1 0 0 0 0 1 2 2 1 2 3 2 2 1 1 1 1 1 1 3 1 0 4 11 4 0 0 0 0 0 1 0 0 0 0 0 0 0 0 0 0 0 0 0 0 0 0 0 0 0 18 21 22 21 36 51 64 62 40 0 0 1 2 1 0 0 0 0 0 0 0
0 0 0 1 0 0 0 0 0 0 0 0 1 0 1 1 1 1 0 0 0 1 0 1 1 1 1 2 2 2 2 2 1 2 1 1 4 3 1 1 0 0 0 0 0 0 0 0 0 0 0 0 0 0 0 0 0 0 0 0 0 0 0 0 0 5 0 0 4 0 0 0 0 0 0 0 0 0 0 0 0 0 0 0 0
0 0 0 0 0 0 0 0 0 0 0 0 0 1 0 0 0 1 0 0 0 0 0 0 0 0 1 1 2 2 2 1 1 1 2 4 5 17 22 3 0 0 0 0 0 0 0 0 0 0 0 0 0 0 0 0 0 0 0 0 0 0 0 0 0 0 0 0 0 0 0 0 0 0 0 0 0 0 0 0 0 0 0 0 0
Wind_Speed
15 14 15 15 16 17 16 15 15 14 13 13 13 13 13 14 15 15 16 16 16 16 15 16 18 18 17 16 16 17 17 17 18 18 17 17 17 17 15 13 11 10 11 11 10 10 12 12 13 15 16 16 15 14 15 16 18 19 19 19 18 18 18 18 17 16 16 19 21 23 25 28 24 22 21 23 26 27 25 26 27 27 27 29 30
14 15 15 15 16 16 16 15 15 14 14 14 14 15 15 14 15 16 16 16 17 17 17 17 18 20 20 19 18 19 19 18 19 19 19 18 18 18 17 16 14 11 11 11 12 11 13 14 15 16 17 17 17 17 16 17 20 20 20 20 19 18 18 19 17 17 17 18 18 19 20 26 25 25 23 23 27 26 27 26 26 28 27 27 28
14 15 14 14 15 15 16 15 15 16 15 15 16 16 17 17 17 17 17 17 18 17 18 18 18 19 20 21 21 20 21 21 20 19 20 20 19 19 19 18 17 14 13 12 13 12 13 15 17 18 18 18 18 17 18 18 19 21 21 19 18 17 17 16 16 16 15 15 18 19 20 19 20 23 24 23 24 28 28 28 28 27 28 28 28
14 15 13 13 15 16 16 16 18 18 18 17 18 18 17 18 19 18 18 18 19 19 20 20 20 20 20 21 22 21 21 22 22 21 21 21 21 21 21 19 18 17 14 13 13 13 14 15 17 19 19 20 20 19 18 18 18 19 20 18 17 16 15 16 16 15 15 15 16 20 21 22 20 22 24 24 24 24 27 29 29 29 30 31 29
15 16 15 15 15 15 16 17 18 19 19 18 19 19 19 19 19 20 19 18 19 21 21 21 22 22 21 21 21 22 22 23 24 23 21 21 22 22 22 21 18 17 15 14 14 14 14 15 17 19 20 20 21 20 19 18 18 17 18 17 17 15 14 17 18 17 17 18 17 18 20 24 24 24 25 26 26 25 26 28 30 31 30 29 30
16 17 17 17 16 16 17 17 18 19 19 19 20 20 20 19 20 20 19 18 18 19 22 22 22 22 22 22 21 21 22 22 23 24 23 22 22 22 23 23 20 17 15 14 13 13 13 15 16 18 19 21 21 22 21 19 18 17 17 17 17 17 17 17 20 21 20 18 20 19 21 23 24 25 28 28 28 30 28 29 29 30 32 33 31
18 19 19 18 17 17 18 18 18 18 19 18 18 19 20 20 19 19 19 18 18 17 20 22 22 22 22 22 21 21 22 22 22 23 23 22 22 23 24 23 21 17 14 14 13 13 13 14 16 17 18 20 22 23 23 21 19 18 18 18 19 18 19 19 20 22 23 22 21 21 22 24 26 27 29 31 31 31 33 32 31 32 32 35 35
19 20 20 19 18 19 18 19 19 19 19 20 19 19 19 19 18 18 18 18 18 18 18 21 23 22 21 21 21 21 21 22 21 22 22 23 22 23 24 24 20 16 14 13 13 12 13 14 15 16 18 19 21 23 25 24 22 20 20 20 20 21 21 21 21 23 24 24 25 25 25 26 27 27 29 33 32 31 33 34 35 35 36 36 37
18 18 19 19 19 20 20 19 19 18 19 20 20 19 19 19 18 17 17 18 17 17 17 18 21 21 21 21 21 21 21 20 21 22 22 23 23 23 24 23 20 16 14 14 14 14 14 14 14 15 18 20 23 24 26 28 26 24 23 24 24 24 23 23 23 24 24 26 26 27 28 28 29 31 32 34 37 37 35 35 34 36 37 37 38
16 16 16 17 18 20 20 20 18 17 18 19 20 20 20 20 19 17 16 17 18 18 16 15 17 20 21 21 20 20 19 19 21 25 24 23 23 22 21 20 18 16 15 15 16 17 16 15 14 16 19 23 24 26 27 30 30 28 27 28 28 27 27 27 26 26 27 28 28 30 30 31 32 33 34 34 35 37 37 38 37 36 37 37 37
17 17 15 17 18 18 19 19 17 16 17 18 20 21 21 20 20 18 17 17 18 19 18 16 14 16 19 20 20 19 18 18 23 24 25 25 22 20 19 17 17 17 15 16 16 18 19 19 17 19 20 22 24 28 28 29 31 31 31 31 31 31 31 31 30 30 30 29 30 32 33 33 35 35 36 37 37 39 41 40 40 39 39 39 38
20 20 18 19 18 16 15 17 17 16 17 17 19 21 22 21 20 20 19 18 18 19 19 17 15 14 17 18 18 17 15 17 23 23 23 23 21 19 18 17 17 17 17 17 17 18 20 21 21 20 22 24 24 25 28 30 31 33 33 33 33 34 34 34 35 34 34 33 33 34 35 36 38 38 39 41 40 40 42 43 43 43 41 40 39
24 24 22 21 20 17 15 15 15 16 17 19 20 22 24 22 21 20 20 20 20 19 19 19 17 16 14 16 16 15 12 16 20 21 21 21 22 20 16 17 18 18 18 19 19 20 20 21 22 23 23 29 28 27 27 28 31 34 36 35 34 36 34 34 36 36 37 36 35 35 37 39 41 41 42 43 44 43 45 45 45 45 45 44 42
26 27 26 25 23 20 17 16 15 15 17 19 21 22 23 23 22 21 21 21 21 19 19 19 18 17 15 13 14 14 12 15 19 20 20 21 21 20 15 16 16 17 18 20 20 21 22 22 23 23 24 27 29 29 29 29 30 32 34 33 32 34 35 35 35 36 37 37 37 36 38 41 41 43 45 46 48 48 49 48 48 48 50 50 48
26 29 29 29 27 24 21 19 18 18 19 19 20 21 22 22 23 22 22 21 20 19 19 19 19 18 17 15 12 11 10 16 18 19 18 19 20 17 14 15 14 15 17 19 21 23 24 25 25 25 26 28 30 32 32 32 31 33 35 36 35 34 34 32 33 35 35 35 37 37 39 41 42 44 46 47 48 50 52 52 53 51 52 52 52
27 29 31 32 31 29 26 24 22 21 20 21 20 20 21 23 23 23 22 20 19 19 19 18 18 18 17 15 13 10 8 15 18 18 19 19 22 18 16 17 16 16 17 19 21 23 24 26 28 28 30 31 34 40 39 36 35 36 37 37 37 36 34 33 35 36 36 37 37 39 41 42 44 45 47 48 49 51 53 54 56 56 57 57 56
27 29 31 32 33 33 30 27 25 21 20 19 19 19 21 23 23 23 21 20 20 20 19 17 17 17 16 16 14 10 9 13 17 17 18 22 22 20 21 21 20 19 18 21 23 24 26 28 30 30 31 32 36 42 43 44 38 38 39 39 39 40 38 37 37 38 38 38 37 38 42 45 46 47 49 50 52 54 56 56 58 60 60 59 58
28 29 31 33 34 34 33 30 25 21 18 18 19 19 21 22 22 24 22 21 20 19 19 19 19 18 17 17 16 14 12 15 20 18 19 22 24 23 24 25 24 23 23 24 25 26 27 29 31 31 31 32 36 43 46 47 41 39 41 41 41 41 40 41 42 41 40 41 41 41 43 45 48 50 50 50 53 57 56 56 60 61 60 61 61
29 29 32 34 34 35 34 31 26 21 17 17 19 20 21 21 22 23 22 22 20 21 21 21 20 20 19 18 19 18 15 16 22 23 24 25 25 23 26 27 27 28 30 29 29 28 28 29 31 30 30 32 37 42 47 48 42 41 43 44 43 43 42 45 45 46 44 45 42 43 44 46 51 53 52 52 53 55 56 57 61 62 61 61 62
32 32 34 35 35 35 34 30 26 21 17 17 18 19 21 21 21 22 22 23 22 21 21 21 21 21 21 21 20 20 19 19 25 27 30 31 34 31 30 30 29 30 31 31 32 32 30 30 31 32 31 34 39 43 45 47 43 42 44 45 43 41 41 45 46 48 47 47 45 46 46 49 51 53 55 55 55 56 58 60 61 63 63 63 63
36 36 36 36 35 35 34 31 27 22 18 17 18 19 19 19 19 20 21 22 22 21 20 19 19 20 21 22 21 22 23 22 26 32 32 36 37 36 32 31 29 30 32 32 33 33 33 33 32 36 39 39 41 44 46 47 46 44 45 45 44 42 47 48 47 49 50 50 48 48 48 50 50 52 54 56 56 58 61 61 62 63 65 64 62
33 36 36 36 36 35 35 33 29 24 21 21 19 19 19 18 17 18 18 20 20 21 20 19 19 19 20 21 20 22 24 26 25 32 35 36 38 38 33 30 32 32 34 34 35 34 34 36 38 38 41 44 44 46 48 49 49 47 46 45 44 48 51 51 52 54 53 54 53 52 52 53 53 52 55 57 57 60 62 62 62 64 65 64 61
29 31 34 35 35 35 35 35 32 28 24 23 22 21 21 19 18 18 18 19 19 20 21 21 20 20 21 21 23 24 25 28 27 33 34 36 36 36 34 31 33 36 35 35 35 35 37 37 38 38 41 45 47 48 50 52 53 51 48 47 47 52 54 55 55 58 57 58 56 54 54 54 55 54 55 57 58 60 62 64 66 68 68 65 62
27 28 30 31 33 34 34 34 33 30 27 25 24 24 23 22 22 21 21 21 22 22 22 23 22 22 23 24 25 27 29 29 31 35 35 34 35 36 34 32 34 37 38 36 37 38 39 40 41 41 43 47 49 49 50 53 53 52 50 49 50 54 56 56 58 60 62 61 58 56 54 54 55 56 56 57 59 60 62 64 68 70 70 67 64
26 26 27 29 31 32 33 33 33 31 29 27 26 26 25 25 24 25 25 24 24 24 24 25 25 26 26 26 28 30 29 29 28 35 38 38 37 37 37 37 36 38 39 39 38 40 41 41 41 43 44 47 50 50 50 52 53 53 53 53 54 58 57 58 60 63 64 64 61 59 57 56 57 58 60 61 63 63 62 64 67 69 69 68 67
28 27 27 28 29 28 29 31 33 31 30 29 28 27 27 26 26 27 26 26 26 26 26 27 28 27 28 28 30 30 30 32 31 39 41 41 35 32 32 31 30 32 34 35 32 33 37 39 39 40 42 47 51 52 50 51 54 55 56 57 59 58 59 60 62 64 65 66 65 64 62 62 62 63 65 66 65 64 65 66 67 69 73 72 nan
31 30 27 26 26 26 27 30 32 31 32 31 31 30 28 28 28 29 29 27 28 28 28 30 30 31 30 33 33 34 34 36 42 45 44 42 42 45 45 43 42 42 42 42 37 38 36 37 40 39 41 43 49 51 50 51 55 57 57 59 59 59 61 62 64 65 66 68 69 68 66 66 67 68 67 67 67 67 68 68 69 71 72 71 72
29 29 27 26 26 25 28 29 31 31 32 32 31 31 30 31 32 32 30 29 30 32 32 33 34 33 34 36 37 38 39 46 43 43 44 43 45 46 48 50 50 53 50 48 47 45 43 41 38 41 44 45 46 50 53 51 53 56 59 61 61 61 62 63 64 66 67 67 70 71 71 70 69 68 69 70 69 69 71 71 70 72 73 73 nan
30 28 28 28 27 28 30 32 33 33 38 44 43 40 34 30 38 41 38 33 35 34 37 41 41 42 45 44 44 45 47 46 46 47 48 49 51 52 52 52 53 51 51 55 52 50 49 48 47 46 48 49 49 48 48 50 52 55 55 56 58 62 64 65 67 69 69 70 73 75 71 70 69 68 69 71 70 70 71 72 72 72 71 71 71
30 30 30 30 31 31 32 33 33 35 41 40 41 41 46 51 44 43 40 42 50 50 48 43 41 44 49 47 46 48 49 48 50 53 55 56 56 55 55 53 51 51 49 49 54 54 53 51 50 50 51 52 52 50 49 51 53 54 56 58 60 61 64 67 70 73 73 73 76 78 78 76 75 72 70 68 70 72 71 73 74 74 71 nan nan
33 34 34 33 33 32 34 39 40 41 42 41 41 44 44 47 51 51 49 48 53 57 57 57 57 53 52 52 52 57 58 56 55 55 56 58 60 60 59 56 53 52 54 nan nan nan nan nan nan 52 51 51 51 49 49 50 53 55 55 60 64 63 64 67 71 73 74 74 75 77 80 77 75 75 73 70 69 70 70 71 71 nan nan nan nan
38 38 38 37 40 39 39 40 41 42 43 42 43 44 46 47 47 49 50 53 56 58 58 59 60 61 61 58 54 52 55 57 55 53 52 55 56 nan nan nan nan nan nan nan nan nan nan nan nan nan nan 51 50 49 48 48 50 52 54 57 59 61 63 65 70 73 76 77 78 80 80 75 71 73 78 78 74 69 69 70 nan nan nan nan nan
43 42 41 41 42 43 43 43 43 43 44 45 45 46 47 47 49 48 49 52 54 56 59 60 61 63 63 62 61 59 55 nan nan nan nan nan nan nan nan nan nan nan nan nan nan nan nan nan nan nan nan nan nan nan 47 46 46 49 51 54 56 58 61 63 69 71 74 78 82 80 78 75 73 74 75 78 76 71 67 67 nan nan nan nan nan
44 43 43 43 44 44 44 44 44 45 45 46 47 48 48 49 49 50 51 50 51 53 53 55 60 65 63 nan nan nan nan nan nan nan nan nan nan nan nan nan nan nan nan nan nan nan nan nan nan nan nan nan nan nan nan nan 45 46 48 52 56 59 63 69 75 77 79 85 86 81 78 78 74 69 67 68 69 70 67 nan nan nan nan nan nan
47 47 49 46 45 45 45 45 45 46 48 50 51 50 51 50 51 51 51 52 53 54 55 55 52 56 nan nan nan nan nan nan nan nan nan nan nan nan nan nan 65 nan nan nan nan nan nan nan nan nan nan nan nan nan nan nan nan nan 49 52 55 59 65 73 78 81 83 83 81 76 75 75 68 60 60 62 62 nan nan nan nan nan nan nan nan
45 45 46 47 47 48 48 48 48 50 51 52 51 51 50 51 53 54 55 56 57 57 60 60 60 59 nan nan nan nan nan nan nan nan nan nan nan nan 64 63 64 nan nan 58 nan nan nan nan nan nan nan nan nan nan nan nan nan nan nan nan 55 59 62 68 73 75 73 70 70 71 67 62 56 52 51 53 56 58 nan nan nan nan nan nan nan
46 47 47 47 48 49 50 51 52 53 53 53 53 54 54 55 55 57 58 59 59 59 62 63 64 62 60 62 nan nan nan nan nan nan nan nan nan nan 65 65 nan nan 58 57 56 nan nan nan nan nan nan nan nan nan nan nan nan nan nan nan nan nan nan 66 71 nan nan nan 59 61 57 51 48 49 48 48 50 nan nan nan nan nan nan nan nan
52 50 48 49 50 50 50 51 51 53 56 56 56 57 58 58 59 59 60 61 61 62 62 62 61 61 61 60 nan nan nan nan nan nan nan nan nan nan nan nan nan nan nan nan 57 nan nan nan nan nan nan nan nan nan 47 46 47 48 48 nan nan nan nan nan nan nan nan nan 47 45 39 38 38 39 40 42 44 nan nan nan nan nan nan nan nan
54 57 60 59 55 54 54 54 55 55 57 57 58 58 59 59 60 60 60 61 61 61 61 61 61 63 62 59 59 nan 54 59 62 65 64 64 62 nan nan nan nan nan nan nan nan nan nan nan nan nan nan nan nan nan nan nan nan nan nan nan 54 nan nan nan nan nan nan 38 34 27 nan 46 nan nan 38 39 nan nan nan nan nan nan nan nan nan
55 55 54 53 56 57 56 56 56 56 56 58 58 58 58 58 58 59 60 60 61 61 62 62 64 63 61 61 nan nan nan 59 60 62 nan nan nan nan nan nan nan nan nan nan nan nan nan nan nan nan nan nan nan nan nan nan nan nan nan nan nan 51 nan nan nan nan 39 29 31 nan nan nan nan nan nan nan nan nan nan nan nan nan nan nan nan
57 56 55 55 55 56 59 58 58 60 61 61 60 60 59 59 59 59 60 62 62 61 63 62 65 65 63 nan nan nan nan nan 59 60 nan nan nan nan nan nan nan nan nan nan nan nan nan nan nan nan nan nan nan nan nan nan nan nan nan nan nan nan nan nan nan nan nan nan nan nan nan nan nan nan nan nan nan nan nan nan nan nan nan nan nan
59 59 59 59 57 59 60 61 62 64 63 63 63 62 61 60 60 61 61 62 nan nan nan 65 68 66 nan nan nan nan nan 58 59 57 nan nan nan nan nan nan nan nan nan nan nan nan nan nan nan nan nan nan nan nan nan nan nan nan nan nan nan nan nan nan nan nan nan nan nan nan nan nan nan nan nan nan nan nan nan nan nan nan nan nan nan
63 63 64 65 67 65 65 66 65 66 66 67 67 66 66 66 63 61 63 64 64 63 65 67 67 67 65 nan nan nan 59 58 nan 55 nan nan nan nan nan nan nan nan nan nan nan nan nan nan nan nan nan nan nan nan nan nan nan nan nan nan nan nan nan nan nan nan nan nan nan nan nan nan nan nan nan nan nan nan nan nan nan nan nan nan nan
nan nan nan 68 67 nan nan 67 nan nan 69 70 69 68 67 66 65 64 65 65 66 66 66 nan nan nan 65 65 63 60 59 56 56 nan 56 nan nan nan nan nan nan nan nan nan nan nan nan nan nan nan nan nan nan nan nan nan nan nan nan nan nan nan nan nan nan nan nan nan nan nan nan nan nan nan nan nan nan nan nan nan nan nan nan nan nan
nan nan nan nan nan nan nan nan nan nan nan nan nan nan nan nan nan nan nan nan nan nan nan nan nan nan nan 62 60 nan nan nan nan nan nan nan nan nan nan nan nan nan nan nan nan nan nan nan nan nan nan nan nan nan nan nan nan nan nan nan nan nan nan nan nan nan nan nan nan nan nan nan nan nan nan nan nan nan nan nan nan nan nan nan nan
nan nan nan nan nan nan nan nan nan nan nan nan nan nan nan nan nan nan nan nan nan nan nan nan nan nan nan nan nan nan nan nan nan nan nan nan nan nan nan nan nan nan nan nan nan nan nan nan nan nan nan nan nan nan nan nan nan nan nan nan nan nan nan nan nan nan nan nan nan nan nan nan nan nan nan nan nan nan nan nan nan nan nan nan nan
nan nan nan nan nan nan nan nan nan nan nan nan nan nan nan nan nan nan nan nan nan nan nan nan nan nan nan nan nan nan nan nan nan nan nan nan nan nan nan nan nan nan nan nan nan nan nan nan nan nan nan nan nan nan nan nan nan nan nan nan nan nan nan nan nan nan nan nan nan nan nan nan nan nan nan nan nan nan nan nan nan nan nan nan nan
nan nan nan nan nan nan nan nan nan nan nan nan nan nan nan nan nan nan nan nan nan nan nan nan nan nan nan nan nan nan nan nan nan nan nan nan nan nan nan nan nan nan nan nan nan nan nan nan nan nan nan nan nan nan nan nan nan nan nan nan nan nan nan nan nan nan nan nan nan nan nan nan nan nan nan nan nan nan nan nan nan nan nan nan nan
nan nan nan nan nan nan nan nan nan nan nan nan nan nan nan nan nan nan nan nan nan nan nan nan nan nan nan nan nan nan nan nan nan nan nan nan nan nan nan nan nan nan nan nan nan nan nan nan nan nan nan nan nan nan nan nan nan nan nan nan nan nan nan nan nan nan nan nan nan nan nan nan nan nan nan nan nan nan nan nan nan nan nan nan nan
nan nan nan nan nan nan nan nan nan nan nan nan nan nan nan nan nan nan nan nan nan nan nan nan nan nan nan nan nan nan nan nan nan nan nan nan nan nan nan nan nan nan nan nan nan nan nan nan nan nan nan nan nan nan nan nan nan nan nan nan nan nan nan nan nan nan nan nan nan nan nan nan nan nan nan nan nan nan nan nan nan nan nan nan nan
nan nan nan nan nan nan nan nan nan nan nan nan nan nan nan nan nan nan nan nan nan nan nan nan nan nan nan nan nan nan nan nan nan nan nan nan nan nan nan nan nan nan nan nan nan nan nan nan nan nan nan nan nan nan nan nan nan nan nan nan nan nan nan nan nan nan nan nan nan nan nan nan nan nan nan nan nan nan nan nan nan nan nan nan nan
Wind_Direction
300 295 294 299 301 308 312 313 316 310 310 309 307 305 301 302 302 301 293 298 297 300 297 292 293 297 302 301 309 307 307 310 310 315 323 328 332 336 334 327 323 317 316 319 320 308 312 319 324 327 328 337 340 342 337 334 331 333 334 331 329 319 317 315 317 319 313 314 311 319 326 325 332 336 337 336 333 338 337 337 332 337 335 336 338
295 291 291 293 304 306 310 307 310 306 314 312 311 307 304 303 299 296 300 298 297 301 302 298 292 297 300 300 302 304 305 305 308 308 315 321 327 327 332 327 322 318 313 318 318 311 307 313 319 323 324 329 334 338 337 337 333 335 336 335 331 327 318 318 321 323 331 325 326 323 321 332 334 341 342 341 339 339 340 340 339 339 341 340 342
293 285 289 294 301 300 299 303 305 311 320 316 323 319 310 306 302 301 303 299 298 299 298 301 296 296 298 298 301 302 303 305 303 304 308 315 321 325 329 329 324 320 318 320 321 316 311 312 317 317 316 325 329 333 335 339 337 338 340 338 338 333 328 328 328 340 345 344 337 338 339 337 337 342 346 344 343 343 345 346 346 345 344 345 343
292 287 289 294 299 299 300 299 314 319 323 316 321 320 313 307 303 305 305 302 301 300 297 299 297 298 299 298 300 301 301 302 304 305 307 311 315 321 323 328 325 321 320 318 322 320 319 312 313 315 316 320 324 327 331 334 337 336 341 337 339 341 334 336 340 340 345 353 346 347 342 342 342 339 344 344 346 347 347 348 350 348 348 346 345
295 294 298 304 304 298 305 306 311 316 319 313 319 317 314 310 303 309 309 311 306 300 300 299 299 300 301 300 300 303 303 304 306 308 307 307 312 316 320 324 325 321 319 316 317 320 320 316 311 311 313 315 316 322 325 333 335 333 337 335 334 335 333 333 338 338 341 347 347 343 340 341 339 339 340 340 344 347 345 350 349 349 349 347 345
298 295 298 301 297 303 301 306 311 314 315 313 315 312 311 309 306 306 312 314 309 307 305 304 302 303 302 301 301 302 301 302 305 307 310 308 307 311 314 319 324 320 316 316 313 313 314 314 310 310 312 314 314 315 318 328 329 334 333 331 328 326 330 326 329 335 337 338 338 339 339 334 336 336 338 339 340 344 345 347 348 348 347 348 350
294 296 300 305 297 304 304 304 300 305 304 302 301 302 307 313 315 313 311 315 318 318 313 310 306 305 304 302 303 301 300 301 301 304 306 306 305 308 311 315 319 316 312 312 309 308 310 309 309 311 313 311 310 310 312 318 324 330 330 327 324 325 326 325 324 329 332 334 332 333 333 336 332 336 336 336 338 339 342 344 348 348 347 347 346
294 296 299 301 300 306 301 299 296 296 294 294 294 298 303 307 308 303 302 312 321 321 319 313 307 307 307 306 303 299 298 299 300 301 302 302 301 302 305 309 316 315 310 307 303 301 305 310 315 315 315 309 307 304 307 312 315 322 323 322 322 325 324 323 323 324 326 329 331 329 331 329 332 329 329 330 334 337 340 340 344 344 348 347 344
292 299 301 303 303 300 295 293 293 293 293 292 295 297 298 298 298 298 297 305 308 317 320 316 310 310 308 307 305 303 303 303 298 298 298 300 299 302 306 311 315 313 308 306 303 300 299 305 311 317 316 317 319 311 310 311 312 319 320 320 322 321 319 317 320 321 321 323 326 324 325 328 326 328 331 330 334 338 333 335 337 339 341 344 344
292 298 306 305 297 295 295 292 290 289 289 291 292 293 289 291 295 297 298 301 300 306 310 315 313 312 311 309 307 305 305 300 306 314 308 301 303 303 305 312 318 317 312 308 306 305 306 307 310 328 326 325 324 323 320 318 322 319 317 317 318 318 318 317 317 319 318 321 324 322 325 326 325 325 328 329 327 327 328 330 334 333 333 339 339
298 303 307 305 299 299 298 297 292 290 290 289 286 288 290 289 290 293 295 297 300 302 308 314 319 310 310 311 313 312 308 303 316 315 317 320 311 310 314 317 321 323 319 313 309 307 305 308 305 313 321 323 326 330 328 325 323 324 322 320 316 317 318 319 318 317 318 319 319 320 322 323 323 321 323 323 325 327 327 326 328 328 331 333 337
299 301 304 305 306 307 304 303 300 297 292 292 288 287 289 291 293 295 299 303 299 298 308 315 313 309 305 313 316 315 313 314 316 320 324 328 325 318 320 320 319 323 323 320 312 309 310 312 311 308 313 319 324 327 331 332 328 325 321 319 321 324 324 320 317 316 317 316 317 321 319 320 318 318 319 319 321 323 323 324 325 327 328 329 330
295 301 305 307 308 304 301 306 307 302 300 294 287 285 290 296 300 301 306 303 299 303 310 315 316 315 311 311 316 316 311 316 319 327 331 335 338 331 317 321 323 325 326 327 325 321 318 315 313 313 312 326 327 327 326 328 330 327 323 323 325 325 324 325 323 318 312 314 317 318 319 315 316 317 317 316 315 319 319 321 322 323 324 325 325
289 297 299 304 305 302 300 303 307 306 299 296 293 293 297 303 304 300 297 295 302 312 318 319 314 313 314 306 305 315 321 312 324 331 337 341 340 333 324 324 327 331 332 334 333 333 330 324 321 321 320 319 326 332 332 331 325 316 313 315 312 320 319 324 325 323 315 311 311 315 313 311 313 312 314 312 314 316 316 319 319 320 321 322 319
281 286 294 296 300 302 301 298 299 298 298 297 298 300 301 298 299 297 297 300 307 314 317 316 311 309 313 315 306 306 314 321 323 335 340 342 341 328 324 328 323 326 330 332 334 333 330 327 328 329 327 327 326 333 331 332 328 324 324 323 321 316 314 312 308 303 306 305 307 309 307 307 308 307 307 310 312 310 311 314 316 317 314 311 312
281 280 288 293 298 300 301 301 301 301 299 294 295 298 297 296 296 294 292 294 297 300 302 304 307 307 307 310 314 316 312 320 324 331 339 337 335 310 316 327 321 318 322 324 324 323 322 324 324 327 328 329 329 332 329 322 323 323 324 323 321 316 316 322 325 318 312 309 305 302 302 303 305 304 303 304 306 306 305 305 307 308 308 309 312
282 280 282 287 292 295 298 303 305 306 302 298 294 291 288 287 287 285 289 289 291 296 298 299 293 296 301 302 308 304 299 301 311 324 329 333 316 305 303 318 317 321 319 316 315 316 317 319 321 321 325 326 326 324 325 319 316 319 319 318 315 310 313 314 321 323 321 317 314 309 304 305 306 307 306 307 302 302 302 304 305 304 305 307 308
281 277 277 282 286 288 293 299 304 305 305 309 301 286 279 277 282 282 286 288 292 294 291 288 289 294 300 303 303 299 294 292 302 311 319 319 314 294 303 310 314 317 319 315 309 307 314 326 325 322 322 321 321 320 321 317 316 315 315 317 316 315 315 313 305 308 318 316 314 311 308 304 303 303 303 305 306 302 302 306 303 301 304 305 306
278 278 274 275 278 281 287 295 299 300 305 307 301 291 284 281 278 278 285 288 290 285 287 291 293 293 302 305 306 305 297 294 302 310 317 315 309 299 304 306 314 319 316 313 310 308 308 314 325 323 318 316 319 319 321 319 317 314 314 313 317 322 325 317 310 305 305 302 305 302 299 303 299 296 295 300 302 303 301 300 298 299 301 302 303
270 269 269 271 274 278 282 289 294 293 294 299 298 291 280 278 284 286 287 288 291 293 294 295 299 298 301 304 302 301 302 297 299 316 316 318 321 309 307 310 318 317 310 306 304 306 310 309 310 317 320 315 316 317 319 321 317 313 309 310 314 324 318 308 308 306 306 310 310 308 305 300 300 299 295 293 295 298 297 296 296 297 298 298 300
261 263 266 269 272 276 278 284 290 287 280 286 291 289 284 283 285 286 292 293 295 299 304 302 301 299 303 302 303 303 299 303 301 314 316 317 319 314 302 310 308 302 298 298 300 302 305 306 303 307 314 317 316 315 316 319 320 312 310 310 314 314 303 301 304 308 300 302 304 304 302 299 300 301 301 299 298 298 298 297 296 294 293 293 295
255 257 262 265 268 272 276 279 284 280 273 274 282 286 284 286 285 289 291 290 295 297 297 295 296 295 295 297 297 295 297 307 299 302 309 311 311 318 300 303 300 296 296 296 298 301 302 300 300 307 311 314 317 313 313 315 319 311 313 317 314 306 302 299 295 295 296 296 298 299 299 300 301 302 302 303 304 304 303 301 297 295 292 289 289
258 258 259 262 264 267 270 275 278 275 271 272 278 281 280 282 283 285 287 286 288 290 292 292 291 291 288 289 288 289 288 289 301 291 301 305 308 310 316 308 306 299 300 301 303 302 299 298 299 303 304 308 312 314 314 316 311 313 321 315 310 306 300 296 295 294 296 296 297 298 299 299 300 300 301 302 302 303 304 301 298 296 292 294 294
263 263 261 261 262 263 265 268 273 273 270 268 270 274 276 276 277 278 281 282 282 284 285 286 288 289 289 287 288 286 287 286 286 293 293 304 304 310 316 319 313 302 306 305 303 301 300 298 297 304 306 307 310 313 315 313 311 319 321 319 310 302 297 297 296 296 296 295 297 298 299 298 298 298 299 297 295 297 298 297 296 297 297 298 297
264 264 263 261 260 260 260 261 266 268 264 263 266 269 272 273 272 273 276 279 279 282 283 283 284 282 284 285 286 289 290 288 280 288 297 301 309 314 319 321 321 316 306 305 304 302 301 303 303 303 304 307 310 312 311 316 322 321 321 320 313 300 300 299 298 295 296 298 299 297 296 296 296 295 293 292 289 291 293 293 293 294 295 295 293
260 259 257 256 258 260 260 263 262 262 259 258 260 262 266 270 270 271 274 276 277 280 281 283 283 286 286 288 289 291 292 288 286 279 278 278 283 285 286 289 296 298 293 286 291 297 298 300 302 305 304 302 301 302 305 311 319 322 321 317 306 307 303 301 298 297 297 296 296 295 294 292 292 291 290 291 291 294 293 292 293 292 291 293 nan
258 256 255 254 256 256 259 259 259 256 255 255 256 260 264 266 267 269 272 275 276 277 280 284 287 288 290 290 291 292 292 287 274 274 278 283 288 292 295 296 300 298 294 295 293 290 290 290 293 296 298 305 307 308 309 312 311 310 307 304 305 309 305 302 301 299 296 294 293 293 291 289 287 288 290 291 291 292 293 293 292 292 293 294 293
260 259 258 255 253 253 254 263 260 254 254 256 260 264 265 265 268 270 273 276 277 279 282 287 289 289 289 290 290 290 287 277 275 277 277 279 281 282 287 290 291 292 293 294 295 294 294 293 293 294 296 295 296 295 298 301 305 304 303 304 308 310 308 308 304 298 295 293 290 288 287 287 288 289 287 287 288 288 290 290 290 290 292 292 nan
256 259 257 255 252 250 252 252 253 254 253 247 244 243 247 262 265 257 253 256 265 273 278 271 270 271 273 274 277 278 276 277 278 281 282 282 283 283 282 282 282 283 280 274 280 284 288 295 299 301 301 301 299 300 301 303 303 304 307 308 307 305 304 301 301 297 292 289 287 287 287 287 286 285 285 284 284 285 285 284 282 285 289 289 290
254 255 254 253 252 251 250 252 254 259 260 257 255 251 245 244 255 268 263 260 261 262 267 272 272 275 276 274 275 277 278 279 286 286 288 288 288 289 289 288 288 286 282 278 288 291 294 295 298 299 300 300 301 302 304 303 302 303 305 306 304 303 303 303 300 295 292 290 289 290 288 286 284 284 284 284 282 282 283 283 283 286 290 nan nan
252 253 253 252 251 253 251 247 242 251 260 262 261 261 259 252 247 254 266 268 268 268 269 269 266 267 276 281 278 279 282 283 283 283 286 288 291 292 292 292 289 288 286 nan nan nan nan nan nan 301 301 301 302 304 303 303 304 306 307 306 304 306 306 303 302 300 298 296 292 290 288 286 284 282 282 281 281 279 278 279 282 nan nan nan nan
248 248 247 247 244 242 247 248 250 255 259 260 262 264 263 263 260 253 255 263 268 270 272 272 272 272 272 275 278 278 277 276 275 277 278 279 281 nan nan nan nan nan nan nan nan nan nan nan nan nan nan 300 301 300 301 302 304 306 306 305 306 308 310 310 309 306 302 299 295 289 287 287 284 279 277 277 277 277 280 281 nan nan nan nan nan
250 249 248 245 246 247 245 245 248 250 257 260 261 263 264 264 266 266 261 257 260 266 270 272 274 275 275 274 275 276 277 nan nan nan nan nan nan nan nan nan nan nan nan nan nan nan nan nan nan nan nan nan nan nan 299 301 303 304 305 307 309 309 310 310 308 305 302 299 295 291 288 286 283 280 277 276 276 275 278 280 nan nan nan nan nan
246 248 247 248 249 249 247 247 247 247 249 253 255 258 264 266 267 267 267 268 265 263 264 268 272 272 270 nan nan nan nan nan nan nan nan nan nan nan nan nan nan nan nan nan nan nan nan nan nan nan nan nan nan nan nan nan 302 303 304 306 308 310 313 313 312 311 305 302 298 293 287 282 280 279 277 276 274 275 278 nan nan nan nan nan nan
245 247 251 251 251 252 253 251 251 251 253 255 255 255 256 258 262 265 267 269 269 269 270 269 268 266 nan nan nan nan nan nan nan nan nan nan nan nan nan nan 287 nan nan nan nan nan nan nan nan nan nan nan nan nan nan nan nan nan 304 304 308 314 316 315 313 311 306 299 291 285 282 279 275 273 274 274 273 nan nan nan nan nan nan nan nan
249 250 249 251 251 251 251 252 252 253 252 251 253 256 258 260 261 261 260 260 262 267 269 268 271 271 nan nan nan nan nan nan nan nan nan nan nan nan 284 286 286 nan nan 288 nan nan nan nan nan nan nan nan nan nan nan nan nan nan nan nan 311 313 314 315 313 310 307 300 292 286 285 282 275 269 267 270 272 273 nan nan nan nan nan nan nan
252 251 252 250 251 252 251 250 249 250 251 254 256 256 255 256 258 260 260 260 262 263 265 268 271 269 269 272 nan nan nan nan nan nan nan nan nan nan 287 284 nan nan 285 285 286 nan nan nan nan nan nan nan nan nan nan nan nan nan nan nan nan nan nan 313 311 nan nan nan 289 287 286 282 276 268 267 268 267 nan nan nan nan nan nan nan nan
239 242 248 250 251 251 251 252 253 253 253 253 254 256 257 258 258 259 261 262 262 263 266 267 267 269 268 267 nan nan nan nan nan nan nan nan nan nan nan nan nan nan nan nan 285 nan nan nan nan nan nan nan nan nan 296 298 300 304 307 nan nan nan nan nan nan nan nan nan 296 299 294 286 280 271 266 268 269 nan nan nan nan nan nan nan nan
245 244 244 244 245 248 248 248 249 250 251 253 253 253 254 256 258 259 261 263 263 264 265 266 267 268 268 268 269 nan 272 274 276 279 281 281 283 nan nan nan nan nan nan nan nan nan nan nan nan nan nan nan nan nan nan nan nan nan nan nan 304 nan nan nan nan nan nan 298 285 283 nan 267 nan nan 247 251 nan nan nan nan nan nan nan nan nan
249 249 245 245 248 247 248 249 250 250 253 253 253 254 254 255 257 258 260 261 262 263 264 266 269 272 273 274 nan nan nan 276 278 279 nan nan nan nan nan nan nan nan nan nan nan nan nan nan nan nan nan nan nan nan nan nan nan nan nan nan nan 304 nan nan nan nan 298 285 276 nan nan nan nan nan nan nan nan nan nan nan nan nan nan nan nan
250 249 249 246 245 251 252 250 251 252 251 250 253 255 255 257 258 260 262 263 265 266 268 270 272 275 276 nan nan nan nan nan 278 278 nan nan nan nan nan nan nan nan nan nan nan nan nan nan nan nan nan nan nan nan nan nan nan nan nan nan nan nan nan nan nan nan nan nan nan nan nan nan nan nan nan nan nan nan nan nan nan nan nan nan nan
249 249 249 250 249 250 251 251 251 250 253 256 255 255 258 261 263 264 265 266 nan nan nan 269 273 277 nan nan nan nan nan 278 278 278 nan nan nan nan nan nan nan nan nan nan nan nan nan nan nan nan nan nan nan nan nan nan nan nan nan nan nan nan nan nan nan nan nan nan nan nan nan nan nan nan nan nan nan nan nan nan nan nan nan nan nan
246 247 247 248 247 246 248 249 248 250 251 250 251 250 252 255 256 258 260 260 260 263 269 271 273 275 277 nan nan nan 278 275 nan 279 nan nan nan nan nan nan nan nan nan nan nan nan nan nan nan nan nan nan nan nan nan nan nan nan nan nan nan nan nan nan nan nan nan nan nan nan nan nan nan nan nan nan nan nan nan nan nan nan nan nan nan
nan nan nan 248 249 nan nan 250 nan nan 252 253 254 254 255 256 257 258 259 260 261 262 263 nan nan nan 273 278 279 277 272 274 277 nan 283 nan nan nan nan nan nan nan nan nan nan nan nan nan nan nan nan nan nan nan nan nan nan nan nan nan nan nan nan nan nan nan nan nan nan nan nan nan nan nan nan nan nan nan nan nan nan nan nan nan nan
nan nan nan nan nan nan nan nan nan nan nan nan nan nan nan nan nan nan nan nan nan nan nan nan nan nan nan 273 273 nan nan nan nan nan nan nan nan nan nan nan nan nan nan nan nan nan nan nan nan nan nan nan nan nan nan nan nan nan nan nan nan nan nan nan nan nan nan nan nan nan nan nan nan nan nan nan nan nan nan nan nan nan nan nan nan
nan nan nan nan nan nan nan nan nan nan nan nan nan nan nan nan nan nan nan nan nan nan nan nan nan nan nan nan nan nan nan nan nan nan nan nan nan nan nan nan nan nan nan nan nan nan nan nan nan nan nan nan nan nan nan nan nan nan nan nan nan nan nan nan nan nan nan nan nan nan nan nan nan nan nan nan nan nan nan nan nan nan nan nan nan
nan nan nan nan nan nan nan nan nan nan nan nan nan nan nan nan nan nan nan nan nan nan nan nan nan nan nan nan nan nan nan nan nan nan nan nan nan nan nan nan nan nan nan nan nan nan nan nan nan nan nan nan nan nan nan nan nan nan nan nan nan nan nan nan nan nan nan nan nan nan nan nan nan nan nan nan nan nan nan nan nan nan nan nan nan
nan nan nan nan nan nan nan nan nan nan nan nan nan nan nan nan nan nan nan nan nan nan nan nan nan nan nan nan nan nan nan nan nan nan nan nan nan nan nan nan nan nan nan nan nan nan nan nan nan nan nan nan nan nan nan nan nan nan nan nan nan nan nan nan nan nan nan nan nan nan nan nan nan nan nan nan nan nan nan nan nan nan nan nan nan
nan nan nan nan nan nan nan nan nan nan nan nan nan nan nan nan nan nan nan nan nan nan nan nan nan nan nan nan nan nan nan nan nan nan nan nan nan nan nan nan nan nan nan nan nan nan nan nan nan nan nan nan nan nan nan nan nan nan nan nan nan nan nan nan nan nan nan nan nan nan nan nan nan nan nan nan nan nan nan nan nan nan nan nan nan
nan nan nan nan nan nan nan nan nan nan nan nan nan nan nan nan nan nan nan nan nan nan nan nan nan nan nan nan nan nan nan nan nan nan nan nan nan nan nan nan nan nan nan nan nan nan nan nan nan nan nan nan nan nan nan nan nan nan nan nan nan nan nan nan nan nan nan nan nan nan nan nan nan nan nan nan nan nan nan nan nan nan nan nan nan
nan nan nan nan nan nan nan nan nan nan nan nan nan nan nan nan nan nan nan nan nan nan nan nan nan nan nan nan nan nan nan nan nan nan nan nan nan nan nan nan nan nan nan nan nan nan nan nan nan nan nan nan nan nan nan nan nan nan nan nan nan nan nan nan nan nan nan nan nan nan nan nan nan nan nan nan nan nan nan nan nan nan nan nan nan